Regional Weather Roundup
Issued by NWS San Diego, CA

Home | Current Version | Previous Version | Text Only | Print | Product List | Glossary On
Versions: 1 2 3 4 5 6 7 8 9 10 11 12 13 14 15 16 17 18 19 20 21 22 23 24 25 26 27 28 29 30 31 32 33 34 35 36 37 38 39 40 41 42 43 44 45 46 47 48 49 50
000
ASUS46 KSGX 270911
RWRSGX

SAN DIEGO HOURLY WEATHER ROUNDUP
NATIONAL WEATHER SERVICE SAN DIEGO CA
200 AM PDT THU JUL 27 2017

NOTE: "FAIR" INDICATES FEW OR NO CLOUDS BELOW 12,000 FEET WITH NO
SIGNIFICANT WEATHER AND/OR OBSTRUCTIONS TO VISIBILITY.

CAZ042-043-060-061-PZZ750-775-271000-

GREATER SAN DIEGO AREA

CITY           SKY/WX    TMP DP  RH WIND       PRES   REMARKS
SAN DIEGO AP   CLOUDY    71  64  78 NW8       29.97F
NATIONAL CITY    N/A     71  66  83 N1        29.97F
CHULA VISTA      N/A     71  66  87 CALM      29.87F
IMPERIAL BEACH CLOUDY    70  64  81 NW9       29.97S
BROWN FIELD    CLOUDY    69  65  86 NW3       29.96F
MIRAMAR MCAS   CLOUDY    73  63  70 NW7       29.96F
MONTGOMERY FLD CLOUDY    71  64  78 NW3       29.96F
GILLESPIE FLD    N/A     70  64  83 CALM      29.96F

$$

NORTH SAN DIEGO COUNTY

CITY           SKY/WX    TMP DP  RH WIND       PRES   REMARKS
CAMP PENDLETON CLOUDY    60 N/A N/A CALM      29.95F
OCEANSIDE AP   CLOUDY    71  66  84 N3        29.95F
OCEANSIDE HBR    N/A     70  66  88 N1        29.98F
VISTA            N/A     69  63  83 CALM      29.94F
CARLSBAD       CLOUDY    69  66  90 VRB3      29.95F
DEL MAR          N/A     68  65  89 CALM      29.97F
LA JOLLA SCRIP   N/A     68  66  92 W2        29.95F
FALLBROOK        N/A     67  67 100 CALM      29.97F
ESCONDIDO        N/A     69  64  85 CALM      29.96F
SAN MARCOS       N/A     68  64  86 CALM      29.96F
POWAY            N/A     68  63  84 CALM      29.96F

$$

EAST SAN DIEGO COUNTY

CITY           SKY/WX    TMP DP  RH WIND       PRES   REMARKS
RAMONA         FOG       64  64 100 NW3       29.98F VSB 1/4
SANTEE LAKES     N/A     69  65  86 CALM      29.94F
LA MESA          N/A     67  64  89 CALM      29.88F
JAMUL            N/A     65  63  92 CALM      29.94F
DESCANSO N       N/A     64  38  39 NE3       29.86F
CAMPO            N/A     61  57  87 NE6       30.01F

$$

ORANGE COUNTY AND THE LOS ANGELES BASIN

CITY           SKY/WX    TMP DP  RH WIND       PRES   REMARKS
JOHN WAYNE AP  CLEAR     67  64  90 CALM      29.97F
LAKE FOREST FR   N/A     64  59  83 CALM      29.84F
HUNTINGTON BCH   N/A     66  64  93 W2        29.99S
LOS ALAMITOS   FAIR      67  62  84 W3        29.97S
FULLERTON      CLEAR     70  62  76 NW3       29.96F
LONG BEACH     CLEAR     69  63  81 NW5       29.97F
L.A. AP        PTCLDY    67  64  90 N5        29.98S
L.A. DOWNTOWN  CLEAR     68  61  78 CALM      29.97F

$$

THE INLAND EMPIRE

CITY           SKY/WX    TMP DP  RH WIND       PRES   REMARKS
CORONA         CLEAR     68  62  81 W3        29.98F
CHINO          CLEAR     69  62  78 SW3       29.99F
ONTARIO        CLEAR     70  62  76 VRB5      29.98F
SAN BERNARDINO FAIR      73  61  66 CALM      30.00F
RIVERSIDE AP   CLEAR     70  63  78 W3        29.98F
MORENO VALLEY    N/A     70  64  82 S5        28.10F
MARCH ARB      CLEAR     67  63  86 W3        30.00F
HORSETHIEF CYN   N/A     67  58  73 CALM      29.95F
PERRIS           N/A     69  63  81 W3        29.98F
HEMET EAST       N/A     70  59  69 CALM      29.97F
FRENCH VALLEY  FAIR      66  63  88 CALM      30.00F
TEMECULA         N/A     66  64  93 CALM      30.04F

$$

SAN BERNARDINO AND RIVERSIDE COUNTY MOUNTAINS

CITY           SKY/WX    TMP DP  RH WIND       PRES   REMARKS
BIG BEAR AP    CLEAR     52  45  76 CALM      30.32F
ANGELUS OAKS     N/A     62  47  59 CALM      29.82S
PINE COVE        N/A     67  48  50 CALM      29.91F

$$

SOUTHERN DESERT INCLUDING THE COACHELLA VALLEY

CITY           SKY/WX    TMP DP  RH WIND       PRES   REMARKS
PALM SPRINGS   CLEAR     88  62  41 SE5       29.85F
THOUSAND PALMS   N/A     91  62  38 NW10      29.79F
PALM DESERT      N/A     88  64  45 CALM      31.29S
THERMAL        CLEAR     91  63  39 VRB6      29.78S
BLYTHE         CLEAR     94  53  25 S7        29.81F
IMPERIAL AP    CLEAR     87  47  24 W8        29.78F
EL CENTRO NAS  CLEAR     89  31  12 W10       29.81F
YUMA AZ        PTCLDY    89  52  28 CALM      29.82R
MEXICALI         N/A    N/A N/A N/A MISG        N/A

$$

UPPER DESERT

CITY           SKY/WX    TMP DP  RH WIND       PRES   REMARKS
VICTORVILLE AP CLEAR     73  54  49 CALM      30.06S
HESPERIA         N/A     72  59  64 CALM      29.99S
PALMDALE       CLEAR     78  57  48 SW9       30.03F
LANCASTER      CLEAR     76  54  46 W9        30.02S
EDWARDS AFB    CLEAR     75  54  47 S7        29.99S
DAGGETT        CLEAR     83  55  38 W12       29.96S
29 PALMS N     CLEAR     85  53  33 NW8       30.02S
NEEDLES        CLEAR     98  49  18 SW8       29.84S HX  95

$$

REGIONAL REPORTS

CITY           SKY/WX    TMP DP  RH WIND       PRES   REMARKS
SANTA BARBARA  CLOUDY    63  61  93 SE6       29.97S
SANDBERG       CLEAR     72  53  51 N16G22    30.18S
LAS VEGAS NV   PTCLDY    88  64  44 CALM      29.95F
PHOENIX AZ     PTCLDY    95  58  28 W8        29.85R
TIJUANA        CLOUDY    68  64  88 CALM      29.99F
ENSENADA NW      N/A     69  32  25 NW2       29.93S

$$

OFFSHORE ISLANDS

CITY           SKY/WX    TMP DP  RH WIND       PRES   REMARKS
CATALINA ARPT  CLEAR     67  53  61 N5        30.01F
SAN NICOLAS IS PTCLDY    55  32  41 W6        29.99S

$$

MARINE AND OFFSHORE BUOY REPORTS

STATION/POSITION SKY/WX   TEMP    WIND        PRES    VSBY  SWELL
                          AIR SEA DIR/SP/G                  HT/PER/DIR
                          (F)     (DEG/KT/KT) (MB)    (MI)  (FT/S/D)
TANNER BANKS               61 64  300/ 12/ 14 1015.4F         3/310/ 9
S CLEMENTE BASIN              70  290/  6/  8 1014.9F         2/180/11
SAN NICOLAS IS.               66                N/A           2/250/11
SO. S. ROSA ISLA           59 63  310/ 16/ 19 1014.9F         3/280/ 8
W. S. BARBARA CH           60 61  310/ 16/ 19 1014.5R         2/280/ 8
M. S. BARBARA CH           61 65  230/ 12/ 14 1015.5F         2/250/ 8
S. MONICA BASIN               72  270/  6/  6 1014.5F         2/190/11
S PEDRO CHANNEL               67                N/A           2/180/11
CMP PENDLETON NS              75                N/A           2/190/20
OCEANSIDE OFFSHR              76                N/A           2/200/13
TORREY PINES OTR              74                N/A           2/200/11
SAN DIEGO BAY                 76              1014.7F
POINT LOMA SOUTH              70                N/A           2/200/13

$$




USA.gov is the U.S. government's official web portal to all federal, state and local government web resources and services.